Location: Newark
(34.6283°N, 36.0776°E)
Time: 05:46:23
(UTC+00:00)

Tiros 1 despin weight - Pass Details

Date: 20 September 2019
Orbit: 593 x 643 km, 48.2° (Epoch: 22 October)

Event Time Altitude Azimuth Distance (km) Brightness Sun altitude
Rises 15:48:12 0° 309° (NW) 2,836 ? -3.3°
Reaches altitude 10° 15:50:31 10° 312° (NW) 1,928 ? -3.8°
Maximum altitude 15:54:54 67° 35° (NE) 641 ? -4.7°
Drops below altitude 10° 15:59:16 10° 119° (ESE) 1,916 ? -5.6°
Enters shadow 16:00:28 - 120° (ESE) 2,384 ? -5.8°
Sets 16:01:33 0° 122° (ESE) 2,816 - -6.1°
